When you browse on this site, cookies collect data to enhance your experience and personalize the content and advertising you see.
Visit our Privacy Policy to learn more. By continuing to use the site, you agree to this use of cookies and data.
  • In Austria
  • List of Countries
  • For 7 days
  • Water Temperature
  • Satellite Maps
  • Weather Map
  • News
  • Weather Widgets
  • user-avatar
    Login

    Hourly Weather Yeghegnadzor

    Today, 25 June, Tuesday

    Time Temperature Precipitation Wind Pressure Humidity
    00:00 +24°C° 0 mm 2 mps 654 mmHg 64%
    01:00 +23°C° 0 mm 2 mps 654 mmHg 65%
    02:00 +21°C° 0 mm 2 mps 654 mmHg 66%
    03:00 +21°C° 0 mm 3 mps 654 mmHg 65%
    04:00 +23°C° 0 mm 2 mps 654 mmHg 64%
    05:00 +24°C° 0 mm 2 mps 655 mmHg 63%
    06:00 +24°C° 0 mm 1 mps 655 mmHg 62%
    07:00 +26°C° 0 mm 1 mps 655 mmHg 57%
    08:00 +28°C° 0 mm 1 mps 656 mmHg 51%
    09:00 +29°C° 0 mm 1 mps 656 mmHg 46%
    10:00 +30°C° 0 mm 1 mps 656 mmHg 43%
    11:00 +32°C° 0 mm 1 mps 656 mmHg 39%
    12:00 +34°C° 0 mm 2 mps 656 mmHg 36%
    13:00 +32°C° 0.1 mm 2 mps 656 mmHg 38%
    14:00 +32°C° 0.1 mm 2 mps 656 mmHg 39%
    15:00 +32°C° 0.1 mm 2 mps 655 mmHg 41%
    16:00 +31°C° 0.1 mm 2 mps 655 mmHg 43%
    17:00 +31°C° 0.1 mm 2 mps 655 mmHg 45%
    18:00 +30°C° 0.1 mm 3 mps 655 mmHg 47%
    19:00 +28°C° 0 mm 3 mps 655 mmHg 53%
    20:00 +26°C° 0 mm 3 mps 655 mmHg 58%
    21:00 +24°C° 0 mm 3 mps 655 mmHg 64%
    22:00 +24°C° 0 mm 3 mps 655 mmHg 64%
    23:00 +23°C° 0 mm 2 mps 654 mmHg 63%

    Tomorrow, 26 June, Wednesday

    Time Temperature Precipitation Wind Pressure Humidity
    00:00 +23°C° 0 mm 2 mps 654 mmHg 63%
    01:00 +21°C° 0 mm 2 mps 654 mmHg 63%
    02:00 +21°C° 0 mm 2 mps 654 mmHg 63%
    03:00 +20°C° 0 mm 2 mps 654 mmHg 64%
    04:00 +21°C° 0 mm 2 mps 654 mmHg 62%
    05:00 +23°C° 0 mm 1 mps 655 mmHg 61%
    06:00 +24°C° 0 mm 1 mps 655 mmHg 60%
    07:00 +26°C° 0 mm 1 mps 656 mmHg 54%
    08:00 +27°C° 0 mm 1 mps 656 mmHg 48%
    09:00 +29°C° 0 mm 1 mps 656 mmHg 43%
    10:00 +30°C° 0.1 mm 1 mps 656 mmHg 41%
    11:00 +31°C° 0.1 mm 1 mps 656 mmHg 39%
    12:00 +32°C° 0.1 mm 2 mps 656 mmHg 37%
    13:00 +32°C° 0.2 mm 2 mps 656 mmHg 38%
    14:00 +31°C° 0.2 mm 2 mps 655 mmHg 40%
    15:00 +31°C° 0.2 mm 2 mps 655 mmHg 41%
    16:00 +31°C° 0.1 mm 2 mps 655 mmHg 43%
    17:00 +30°C° 0.1 mm 2 mps 654 mmHg 45%
    18:00 +30°C° 0.1 mm 2 mps 654 mmHg 47%
    19:00 +28°C° 0.3 mm 2 mps 654 mmHg 53%
    20:00 +25°C° 0.3 mm 2 mps 654 mmHg 60%
    21:00 +23°C° 0.3 mm 2 mps 653 mmHg 66%
    22:00 +23°C° 0.1 mm 2 mps 653 mmHg 66%
    23:00 +21°C° 0.1 mm 2 mps 653 mmHg 66%

    Day after tomorrow, 27 June, Thursday

    Time Temperature Precipitation Wind Pressure Humidity
    00:00 +21°C° 0.1 mm 2 mps 653 mmHg 65%
    01:00 +21°C° 0.2 mm 2 mps 653 mmHg 67%
    02:00 +20°C° 0.2 mm 2 mps 652 mmHg 69%
    03:00 +20°C° 0.2 mm 2 mps 652 mmHg 70%
    04:00 +20°C° 0.4 mm 2 mps 653 mmHg 69%
    05:00 +22°C° 0.4 mm 1 mps 653 mmHg 68%
    06:00 +23°C° 0.4 mm 1 mps 653 mmHg 67%
    07:00 +24°C° 0.3 mm 1 mps 653 mmHg 61%
    08:00 +26°C° 0.3 mm 1 mps 654 mmHg 55%
    09:00 +28°C° 0.3 mm 1 mps 654 mmHg 49%
    10:00 +29°C° 0.5 mm 1 mps 654 mmHg 47%
    11:00 +30°C° 0.5 mm 2 mps 653 mmHg 44%
    12:00 +31°C° 0.5 mm 2 mps 653 mmHg 41%
    13:00 +31°C° 0.4 mm 2 mps 653 mmHg 40%
    14:00 +31°C° 0.4 mm 2 mps 652 mmHg 39%
    15:00 +31°C° 0.4 mm 2 mps 652 mmHg 38%
    16:00 +30°C° 0.4 mm 2 mps 652 mmHg 42%
    17:00 +29°C° 0.4 mm 2 mps 651 mmHg 47%
    18:00 +28°C° 0.4 mm 2 mps 651 mmHg 51%
    19:00 +26°C° 1 mm 2 mps 651 mmHg 58%
    20:00 +24°C° 1 mm 2 mps 651 mmHg 64%
    21:00 +23°C° 1 mm 2 mps 651 mmHg 71%
    22:00 +21°C° 0.2 mm 2 mps 650 mmHg 71%
    23:00 +21°C° 0.2 mm 2 mps 650 mmHg 71%

    28 June, Friday

    Time Temperature Precipitation Wind Pressure Humidity
    00:00 +21°C° 0.2 mm 1 mps 650 mmHg 70%
    01:00 +21°C° 0.1 mm 1 mps 650 mmHg 72%
    02:00 +20°C° 0.1 mm 1 mps 649 mmHg 73%
    03:00 +20°C° 0.1 mm 1 mps 649 mmHg 75%
    04:00 +20°C° 0.1 mm 1 mps 649 mmHg 73%
    05:00 +21°C° 0.1 mm 1 mps 649 mmHg 71%
    06:00 +22°C° 0.1 mm 1 mps 649 mmHg 69%
    07:00 +23°C° 0.1 mm 1 mps 649 mmHg 64%
    08:00 +25°C° 0.1 mm 1 mps 650 mmHg 60%
    09:00 +26°C° 0.1 mm 1 mps 650 mmHg 56%
    10:00 +27°C° 0.7 mm 2 mps 650 mmHg 54%
    11:00 +28°C° 0.7 mm 2 mps 649 mmHg 51%
    12:00 +29°C° 0.7 mm 2 mps 649 mmHg 49%
    13:00 +28°C° 0.9 mm 2 mps 649 mmHg 50%
    14:00 +28°C° 0.9 mm 3 mps 648 mmHg 51%
    15:00 +27°C° 0.9 mm 3 mps 648 mmHg 53%
    16:00 +27°C° 0.5 mm 3 mps 648 mmHg 54%
    17:00 +26°C° 0.5 mm 2 mps 648 mmHg 55%
    18:00 +26°C° 0.5 mm 2 mps 648 mmHg 57%
    19:00 +24°C° 0.5 mm 2 mps 648 mmHg 63%
    20:00 +23°C° 0.5 mm 1 mps 648 mmHg 70%
    21:00 +21°C° 0.5 mm 1 mps 648 mmHg 76%
    22:00 +21°C° 0.2 mm 1 mps 648 mmHg 78%
    23:00 +21°C° 0.2 mm 1 mps 648 mmHg 79%

    29 June, Saturday

    Time Temperature Precipitation Wind Pressure Humidity
    00:00 +20°C° 0.2 mm 1 mps 648 mmHg 80%
    01:00 +20°C° 0 mm 1 mps 648 mmHg 80%
    02:00 +20°C° 0 mm 1 mps 647 mmHg 80%
    03:00 +19°C° 0 mm 1 mps 647 mmHg 79%
    04:00 +20°C° 0.1 mm 1 mps 647 mmHg 77%
    05:00 +21°C° 0.1 mm 1 mps 648 mmHg 75%
    06:00 +21°C° 0.1 mm 1 mps 648 mmHg 73%
    07:00 +23°C° 0.3 mm 1 mps 648 mmHg 68%
    08:00 +24°C° 0.3 mm 1 mps 648 mmHg 64%
    09:00 +25°C° 0.3 mm 1 mps 648 mmHg 59%
    10:00 +26°C° 0.9 mm 2 mps 648 mmHg 56%
    11:00 +27°C° 0.9 mm 2 mps 648 mmHg 52%
    12:00 +28°C° 0.9 mm 2 mps 648 mmHg 48%
    13:00 +29°C° 0.7 mm 2 mps 648 mmHg 46%
    14:00 +29°C° 0.7 mm 2 mps 648 mmHg 43%
    15:00 +30°C° 0.7 mm 3 mps 648 mmHg 41%
    16:00 +29°C° 0.5 mm 3 mps 647 mmHg 45%
    17:00 +28°C° 0.5 mm 3 mps 647 mmHg 49%
    18:00 +27°C° 0.5 mm 3 mps 647 mmHg 53%
    19:00 +25°C° 1.3 mm 2 mps 647 mmHg 62%
    20:00 +23°C° 1.3 mm 2 mps 647 mmHg 70%
    21:00 +20°C° 1.3 mm 2 mps 647 mmHg 79%
    22:00 +21°C° 0.3 mm 1 mps 647 mmHg 79%
    23:00 +20°C° 0.3 mm 1 mps 647 mmHg 79%

    30 June, Sunday

    Time Temperature Precipitation Wind Pressure Humidity
    00:00 +20°C° 0.3 mm 1 mps 647 mmHg 79%
    01:00 +20°C° 0.5 mm 1 mps 647 mmHg 80%
    02:00 +20°C° 0.5 mm 1 mps 647 mmHg 81%
    03:00 +20°C° 0.5 mm 1 mps 647 mmHg 82%
    04:00 +19°C° 0.8 mm 2 mps 647 mmHg 82%
    05:00 +19°C° 0.8 mm 2 mps 648 mmHg 83%
    06:00 +19°C° 0.8 mm 2 mps 648 mmHg 83%
    07:00 +20°C° 0.3 mm 2 mps 648 mmHg 76%
    08:00 +23°C° 0.3 mm 2 mps 648 mmHg 69%
    09:00 +24°C° 0.3 mm 2 mps 648 mmHg 62%
    10:00 +25°C° 0.6 mm 2 mps 648 mmHg 59%
    11:00 +26°C° 0.6 mm 2 mps 648 mmHg 56%
    12:00 +28°C° 0.6 mm 3 mps 648 mmHg 53%
    13:00 +28°C° 0.3 mm 3 mps 648 mmHg 51%
    14:00 +29°C° 0.3 mm 3 mps 648 mmHg 48%
    15:00 +29°C° 0.3 mm 3 mps 648 mmHg 45%
    16:00 +29°C° 0.2 mm 2 mps 648 mmHg 49%
    17:00 +28°C° 0.2 mm 2 mps 647 mmHg 53%
    18:00 +27°C° 0.2 mm 2 mps 647 mmHg 57%
    19:00 +26°C° 0.4 mm 2 mps 648 mmHg 63%
    20:00 +24°C° 0.4 mm 2 mps 648 mmHg 68%
    21:00 +21°C° 0.4 mm 2 mps 648 mmHg 73%
    22:00 +21°C° 0.8 mm 2 mps 648 mmHg 77%
    23:00 +20°C° 0.8 mm 2 mps 648 mmHg 80%
    Show more